Regional Weather Roundup
Issued by NWS Kansas City/Pleasant Hill, MO

Home | Current Version | Previous Version | Text Only | Print | Product List | Glossary On
Versions: 1 2 3 4 5 6 7 8 9 10 11 12 13 14 15 16 17 18 19 20 21 22 23 24 25 26 27 28 29 30 31 32 33 34 35 36 37 38 39 40 41 42 43 44 45 46 47 48 49 50
000
ASUS43 KEAX 281210
RWREAX

WEATHER ROUNDUP FOR EASTERN KANSAS AND NORTHWEST MISSOURI
NATIONAL WEATHER SERVICE KANSAS CITY/PLEASANT HILL MO
600 AM CST TUE FEB 28 2017

KSZ040-057-103>105-MOZ028-029-037-043-281300-
...KANSAS CITY METROPOLITAN AREA...

CITY           SKY/WX    TMP DP  RH WIND       PRES   REMARKS
K.C. INTL      CLOUDY    63  58  83 S14G24    29.68F
6HR MIN TEMP:  58; 6HR MAX TEMP:  63;

K.C. DOWNTOWN  CLOUDY    64  58  80 SW14G22   29.68F
6HR MIN TEMP:  61; 6HR MAX TEMP:  65;

LEES SUMMIT    CLOUDY    62  58  86 S16G24    29.70F
6HR MIN TEMP:  59; 6HR MAX TEMP:  63;

OLATHE - IXD   CLOUDY    62  58  86 S15       29.70F
6HR MIN TEMP:  60; 6HR MAX TEMP:  63;

OLATHE - OJC   CLOUDY    61  59  93 S13G23    29.70S
6HR MIN TEMP:  59; 6HR MAX TEMP:  61;

LAWRENCE         N/A     63  59  87 MISG      29.66F

$$

MOZ001>008-011>017-020>025-030>033-038>040-044>046-053-054-281300-
...NORTHERN AND CENTRAL MISSOURI...

CITY           SKY/WX    TMP DP  RH WIND       PRES   REMARKS
ST. JOSEPH     CLOUDY    61  57  87 SW16      29.64S
6HR MIN TEMP:  57; 6HR MAX TEMP:  63;

MOSBY          CLOUDY    63  55  77 SW10G18   29.68F
WARRENSBURG    CLOUDY    61  55  82 S12G20    29.73S
WHITEMAN AFB   CLOUDY    60  60 100 S14       29.73F
6HR MIN TEMP:  59; 6HR MAX TEMP:  60;

CLINTON        CLOUDY    59  57  94 S7        29.76F
SEDALIA        CLOUDY    63  57  81 S17       29.77S
6HR MIN TEMP:  59; 6HR MAX TEMP:  63;

WARSAW         NOT AVBL
CHILLICOTHE      N/A     61  56  83 S10       29.68F
6HR MIN TEMP:  56; 6HR MAX TEMP:  62;

KIRKSVILLE     MOCLDY    58  53  84 S17       29.70F
6HR MIN TEMP:  52; 6HR MAX TEMP:  59;


$$

MOZ041-047>049-056>058-063>065-088>090-097-281300-
...EASTERN AND SOUTHERN MISSOURI...

CITY           SKY/WX    TMP DP  RH WIND       PRES   REMARKS
ST. LOUIS INTL CLOUDY    57  52  83 S13       29.85F
6HR MIN TEMP:  56; 6HR MAX TEMP:  58; 6HR PCP: TRACE;

SPIRIT OF STL  CLOUDY    57  54  89 S12       29.83F
COLUMBIA       MOCLDY    60  56  86 S16G26    29.79R
JEFFERSON CITY CLOUDY    61  55  81 S7        29.80R
ROLLA          CLOUDY    59  56  89 S16       29.82S
OSAGE BEACH    CLOUDY    60  56  86 S9        29.81S
SPRINGFIELD    CLOUDY    60  57  89 S17       29.82S
BRANSON        CLOUDY    63  59  88 S7        29.87S
JOPLIN         CLOUDY    64  61  90 S20       29.78S
WEST PLAINS    FOG       56  55  97 S9        29.91S VSB 3/4

$$

IAZ060-094-KSZ022-034>040-054-083-096-NEZ052-066-093-281300-
...KANSAS...SOUTHEAST NEBRASKA AND IOWA...

CITY           SKY/WX    TMP DP  RH WIND       PRES   REMARKS
TOPEKA         CLOUDY    62  59  90 S12       29.66R
6HR MIN TEMP:  61; 6HR MAX TEMP:  65;

MANHATTAN      CLOUDY    56  53  90 SW10      29.64S
EMPORIA        MOCLDY    61  58  90 S18G24    29.67F
CHANUTE        CLOUDY    62  58  86 S21G29    29.73R
WICHITA        FOG       55  55 100 S13       29.68S VSB 1/2
OMAHA          CLOUDY    42  37  82 SE5       29.58R
LINCOLN        CLOUDY    43  35  73 SW5       29.61R
FALLS CITY     PTCLDY    57  53  86 S15       29.61S
LAMONI         CLOUDY    56  54  93 S13       29.62F
DES MOINES     CLOUDY    54  46  74 SE7       29.62S

$$




USA.gov is the U.S. government's official web portal to all federal, state and local government web resources and services.